GW0870 Weather Reports


time (UTC)temp
C
wind
direction
speed
KPH
gust
KPH
rain 1hr
cm
rain 24hr
cm
rain mn
cm
humidity
%
barometer
mb
20260902141553 31 0 0.0 1.6 0.00 0.00 0.00 68 1019.6
20260902134602 30 0 0.0 1.6 0.00 0.00 0.00 72 1019.7
20260902133051 30 0 0.0 1.6 0.00 0.00 0.00 73 1019.8
20260902131601 28 0 0.0 0.0 0.00 0.00 0.00 81 1019.8
20260902130056 25 0 0.0 0.0 0.00 0.00 0.00 90 1019.9
20260902124552 23 0 0.0 1.6 0.00 0.00 0.00 93 1019.8
20260902123051 22 0 0.0 0.0 0.00 0.00 0.00 95 1019.8
20260902121601 22 0 0.0 0.0 0.00 0.00 0.00 94 1019.6
20260902120059 21 0 0.0 0.0 0.00 0.00 0.00 94 1019.5
20260902114554 21 0 0.0 0.0 0.00 0.00 0.00 94 1019.5
20260902113052 21 0 0.0 0.0 0.00 0.00 0.00 94 1019.3
20260902111601 21 0 0.0 0.0 0.00 0.00 0.00 94 1019.3
20260902110101 21 0 0.0 0.0 0.00 0.00 0.00 94 1019.3
20260902104615 21 0 0.0 0.0 0.00 0.00 0.00 93 1019.2
20260902103048 21 0 0.0 0.0 0.00 0.00 0.00 93 1019.1
20260902101555 21 0 0.0 0.0 0.00 0.00 0.00 93 1019.1
20260902100109 21 0 0.0 0.0 0.00 0.00 0.00 93 1018.9
20260902094555 21 0 0.0 0.0 0.00 0.00 0.00 94 1018.9
20260902093050 22 0 0.0 0.0 0.00 0.00 0.00 94 1018.9
20260902091552 22 0 0.0 1.6 0.00 0.00 0.00 94 1018.8
20260902084557 22 0 0.0 0.0 0.00 0.00 0.00 94 1018.7
20260902083106 22 0 0.0 0.0 0.00 0.00 0.00 94 1018.7
20260902081612 22 0 0.0 0.0 0.00 0.00 0.00 94 1018.6
20260902080100 22 0 0.0 0.0 0.00 0.00 0.00 94 1018.5
20260902074559 22 0 0.0 0.0 0.00 0.00 0.00 93 1018.5
20260902073050 22 0 0.0 0.0 0.00 0.00 0.00 94 1018.5
20260902071601 22 0 0.0 0.0 0.00 0.00 0.00 93 1018.5
20260902070059 22 0 0.0 0.0 0.00 0.00 0.00 93 1018.5
20260902064558 22 0 0.0 0.0 0.00 0.00 0.00 93 1018.6
20260902063113 22 0 0.0 0.0 0.00 0.00 0.00 93 1018.6
20260902061557 22 0 0.0 0.0 0.00 0.00 0.00 93 1018.5
20260902060126 22 0 0.0 0.0 0.00 0.00 0.00 93 1018.4
20260902054554 22 0 0.0 0.0 0.00 0.00 0.00 93 1018.3
20260902053051 22 0 0.0 0.0 0.00 0.00 0.00 93 1018.3
20260902051607 22 0 0.0 0.0 0.00 0.00 0.00 93 1018.4
20260902050055 22 0 0.0 0.0 0.00 0.00 0.00 92 1018.2
20260902044554 23 0 0.0 0.0 0.00 0.00 0.00 92 1018.2
20260902043101 23 0 0.0 0.0 0.00 0.00 0.00 92 1018.2
20260902041554 23 0 0.0 0.0 0.00 0.00 0.00 91 1018.3
20260902040056 23 0 0.0 0.0 0.00 0.00 0.00 91 1018.3
20260902034553 23 0 0.0 0.0 0.00 0.00 0.00 91 1018.2
20260902033106 23 0 0.0 0.0 0.00 0.00 0.00 91 1018.3
20260902031558 23 0 0.0 0.0 0.00 0.00 0.00 90 1018.1
20260902030056 23 0 0.0 0.0 0.00 0.00 0.00 90 1018.1
20260902024603 23 0 0.0 0.0 0.00 0.00 0.00 89 1018.1
20260902023059 24 0 0.0 0.0 0.00 0.00 0.00 89 1018.1
20260902021555 24 0 0.0 0.0 0.00 0.00 0.00 89 1018.1
20260902020141 24 0 0.0 0.0 0.00 0.00 0.00 88 1018.0
20260902014553 25 0 0.0 0.0 0.00 0.00 0.00 87 1017.8
20260902013056 25 0 0.0 0.0 0.00 0.00 0.00 87 1017.8
20260902011555 25 0 0.0 0.0 0.00 0.00 0.00 85 1017.6
20260902010052 25 0 0.0 0.0 0.00 0.00 0.00 84 1017.5
20260902004549 26 0 0.0 0.0 0.00 0.00 0.00 83 1017.4
20260902003104 26 0 0.0 0.0 0.00 0.00 0.00 81 1017.3
20260902001553 27 0 0.0 0.0 0.00 0.00 0.00 79 1017.3
20260902000055 28 0 0.0 0.0 0.00 0.00 0.00 77 1017.3
20260901234604 28 0 0.0 0.0 0.00 0.00 0.00 74 1017.4
20260901233052 30 0 0.0 0.0 0.00 0.00 0.00 71 1017.4
20260901231558 31 0 0.0 0.0 0.00 0.00 0.00 67 1017.5
20260901230056 32 0 0.0 0.0 0.00 0.00 0.00 62 1017.7
20260901224554 33 0 0.0 0.0 0.00 0.00 0.00 55 1017.7
20260901223101 35 0 0.0 3.2 0.00 0.00 0.00 48 1017.5
20260901221618 36 148 0.0 1.6 0.00 0.00 0.00 44 1017.6
20260901220107 37 0 0.0 1.6 0.00 0.00 0.00 41 1017.7
20260901214546 37 107 0.0 1.6 0.00 0.00 0.00 40 1017.7
20260901213103 36 96 0.0 3.2 0.00 0.00 0.00 41 1017.6
20260901211553 36 68 0.0 1.6 0.00 0.00 0.00 48 1017.6
20260901210052 35 326 0.0 3.2 0.00 0.00 0.00 47 1017.7
20260901204558 35 43 0.0 4.8 0.00 0.00 0.00 49 1017.7
20260901203101 36 0 0.0 4.8 0.00 0.00 0.00 48 1017.8
20260901201551 35 49 1.6 4.8 0.00 0.00 0.00 44 1017.8
20260901200059 35 249 1.6 8.0 0.00 0.00 0.00 44 1017.8
20260901194548 35 0 1.6 4.8 0.00 0.00 0.00 45 1018.0
20260901193108 36 296 0.0 4.8 0.00 0.00 0.00 47 1018.1
20260901191553 36 9 0.0 6.4 0.00 0.00 0.00 47 1018.3
20260901190049 36 20 0.0 3.2 0.00 0.00 0.00 48 1018.5
20260901184548 36 142 0.0 3.2 0.00 0.00 0.00 47 1018.6
20260901183057 35 281 0.0 6.4 0.00 0.00 0.00 52 1018.6
20260901181555 34 215 1.6 8.0 0.00 0.00 0.00 53 1018.7
20260901180054 34 136 1.6 6.4 0.00 0.00 0.00 51 1018.8
20260901174559 33 223 0.0 6.4 0.00 0.00 0.00 54 1018.9
20260901173050 34 22 0.0 8.0 0.00 0.00 0.00 55 1019.0
20260901171604 33 88 0.0 9.7 0.00 0.00 0.00 57 1019.1
20260901170104 33 236 0.0 1.6 0.00 0.00 0.00 57 1019.3
20260901164551 33 15 0.0 4.8 0.00 0.00 0.00 60 1019.5
20260901163104 32 0 1.6 9.7 0.00 0.00 0.00 61 1019.7
20260901161554 33 19 0.0 3.2 0.00 0.00 0.00 65 1019.8
20260901154551 31 134 1.6 6.4 0.00 0.00 0.00 62 1020.0
20260901153059 32 22 3.2 6.4 0.00 0.00 0.00 63 1020.2
20260901151558 31 0 0.0 1.6 0.00 0.00 0.00 68 1020.3
20260901150055 31 0 0.0 1.6 0.00 0.00 0.00 69 1020.5
20260901144552 30 0 0.0 4.8 0.00 0.00 0.00 71 1020.4
20260901143102 29 86 0.0 1.6 0.00 0.00 0.00 72 1020.5